About ESCAPADE Blue
Group: 3 satellites
Description loading...
Live Position
Loading 3D Globe...
Upcoming Passes
Altitude History
Altitude vs Time
uPlot chart will show altitude changes over time
Two-Line Element Set
1 66451U 25260A 25317.89009259 .00000000 00000-0 00000+0 0 9996
2 66451 29.5791 179.7445 9967950 180.3280 0.0007 0.00296241 13
Epoch: Nov 13, 2025 •
Age: 2642 hours
Current Status
Position data unavailable
Launch Date Nov 13, 2025
Age 0.3 years
Type other
Technical Details
Classification Payload
Mass 535.00 kg
Dry Mass 201.00 kg
Total Mass 535.00 kg
Length 0.90 m
Diameter 0.50 m
Span 3.00 m
Shape Box+2 pan+ boom
Manufacturer RLABLB
Bus Type RL Pioneer
Phase Status Deep Space
Owner/State UCB/NASA/US
Large Constellations
Loading constellations...